Regional Weather Roundup
Issued by NWS Burlington, VT

Current Version | Previous Version | Text Only | Print | Product List | Glossary Off
Versions: 1 2 3 4 5 6 7 8 9 10 11 12 13 14 15 16 17 18 19 20 21 22 23 24 25 26 27 28 29 30 31 32 33 34 35 36 37 38 39 40 41 42 43 44 45 46 47 48 49 50

000
ASUS41 KBTV 021930
RWRBTV
VERMONT REGIONAL WEATHER ROUNDUP
NATIONAL WEATHER SERVICE BURLINGTON VT
300 PM EDT TUE SEP 02 2014

NOTE: "FAIR" INDICATES FEW OR NO CLOUDS BELOW 12,000 FEET WITH NO
SIGNIFICANT WEATHER AND/OR OBSTRUCTIONS TO VISIBILITY.

* THESE REPORTS ARE NOT UNDER NWS QUALITY CONTROL AND/OR DO NOT
  REPORT WEATHER SUCH AS PRECIPITATION AND FOG.

VTZ001>019-022000-
_____VERMONT_____


CITY           SKY/WX    TMP DP  RH WIND       PRES   REMARKS
BURLINGTON     PTCLDY    88  69  53 S13       29.76F HX  92
MONTPELIER     PTCLDY    84  65  52 SW9       29.85F
MORRISVILLE    PTCLDY    87  63  44 VRB5      29.80F
ST. JOHNSBURY*   N/A     83  68  60 MISG      29.77F
MIDDLEBURY*    FAIR      85  70  61 S7        29.79F
RUTLAND*       MOCLDY    82  66  57 CALM      29.82F
SPRINGFIELD    PTCLDY    82  70  66 VRB6      29.83F
HIGHGATE*      FAIR      85  70  59 SW8       29.74F HX  90
NEWPORT*       MOCLDY    82  67  60 SW12      29.79F
BENNINGTON     PTCLDY    84  68  58 VRB5      29.84F
GALLUP MILLS*    N/A      0 N/A N/A MISG        N/A
UNION VILLAGE*   N/A     84 N/A N/A MISG        N/A
MT. MANSFIELD*   N/A     68 N/A N/A W6G18       N/A

_____LAKE CHAMPLAIN_____


CITY           SKY/WX    TMP DP  RH WIND       PRES   REMARKS
BURTON ISLAND*   N/A     81  70  69 S12         N/A
COLCHESTER RF*   N/A     77  72  83 S13         N/A
DIAMOND ISL*     N/A     84  70  61 S16         N/A

$$

NYZ007-026>031-035-052-083-022000-
_____NORTHERN NEW YORK_____


CITY           SKY/WX    TMP DP  RH WIND       PRES   REMARKS
PLATTSBURGH    MOCLDY    87  64  46 VRB6      29.74F
SARANAC LAKE   MOCLDY    80  61  52 SW12G21   29.82F
MASSENA        PTCLDY    81  67  62 SW10G22   29.75F
OGDENSBURG*    PTCLDY    81  70  69 SW10      29.75F
POTSDAM*       CLEAR     81  70  69 SW10      29.76F
PARISHVILLE*     N/A     77 N/A N/A SW9         N/A
WATERTOWN      CLOUDY    81  67  62 W8        29.78F
FT DRUM        CLOUDY    79  64  60 W8        29.79F
ALBANY         LGT RAIN  77  69  76 SW13      29.83F
GLENS FALLS    PTCLDY    84  71  65 S9        29.80F

$$
NHZ002-005-011-022000-
_____NEW HAMPSHIRE_____


CITY           SKY/WX    TMP DP  RH WIND       PRES   REMARKS
LEBANON        PTCLDY    84  68  58 S10       29.81F
KEENE          MOCLDY    81  64  57 CALM      29.84F
MT WASHINGTON  MOCLDY    59  55  88 W28         N/A  VSB 1
PLYMOUTH       MOCLDY    82  73  74 CALM      29.79F
WHITEFIELD     PTCLDY    84  66  54 SW12G18   29.81F

$$

_____REGIONAL QUEBEC LOCATIONS_____


CITY           SKY/WX    TMP DP  RH WIND       PRES   REMARKS
MONTREAL       MOCLDY    82  68  61 SW15G24   29.72F
QUEBEC CITY    MOCLDY    75  70  83 SE2       29.71F
SHERBROOKE     MOCLDY    82  66  57 W14G22    29.75F

_____REGIONAL ONTARIO LOCATIONS_____


CITY           SKY/WX    TMP DP  RH WIND       PRES   REMARKS
OTTAWA         MOCLDY    81  66  61 SW9G20    29.73F

______KEY______
VSB  - VISIBILITY IN MILES
WCI  - WIND CHILL INDEX
HX   - HEAT INDEX
$$



USA.gov is the U.S. government's official web portal to all federal, state and local government web resources and services.